Rochelle, IL

1:03 PM CDT on September 21, 2017 (GMT -0500)
Rochelle

Weather History for KRPJ - April, 2014

Change the Weather History Date:

Monday, April 28, 2014

  Actual Average (KRFD) Record (KRFD)
Temperature  
Mean Temperature 50 °F -  
Max Temperature 55 °F 62 °F 86 °F (1952)
Min Temperature 45 °F 40 °F 28 °F (1976)
Degree Days  
Heating Degree Days 15    
Moisture  
Dew Point 46 °F    
Average Humidity 86    
Maximum Humidity 94    
Minimum Humidity 74    
Precipitation  
Precipitation 0.06 in - - ()
Sea Level Pressure  
Sea Level Pressure 29.60 in    
Wind  
Wind Speed 21 mph (East)    
Max Wind Speed 32 mph    
Max Gust Speed 40 mph    
Visibility 7 miles    
Events Rain , Thunderstorm    
Averages and records for this station are not official NWS values.
T = Trace of Precipitation, MM = Missing Value Source: NWS Daily Summary

Daily Weather History Graph

Daily Weather History Graph

Search for Another Location

Airport or City:

Trip Planner

Search our weather history database for the weather conditions in past years. The results will help you decide how hot, cold, wet, or windy it might be!

Date:

Astronomy

Apr. 28, 2014 Rise Set
Actual Time 5:56 AM CDT 7:51 PM CDT
Civil Twilight 5:26 AM CDT 8:21 PM CDT
Nautical Twilight 4:49 AM CDT 8:58 PM CDT
Astronomical Twilight 4:10 AM CDT 9:38 PM CDT
Moon 5:35 AM CDT (4/28) 7:29 PM CDT (4/28)
Length of Visible Light 14h 55m
Length of Day
13h 55m
Waning Crescent, 0% of the Moon is Illuminated
Apr 28
Waning Crescent
Apr 29
New
May 6
First Quarter
May 14
Full
May 21
Last Quarter

Hourly Weather History & Observations

Time (CDT) Temp. Windchill Dew Point Humidity Pressure Visibility Wind Dir Wind Speed Gust Speed Precip Events Conditions
12:15 AM 48.9 °F - 40.8 °F 74% 29.77 in 10.0 mi East 18.4 mph 23.0 mph N/A   Overcast
12:35 AM 48.2 °F - 40.5 °F 75% 29.77 in 10.0 mi East 21.9 mph 34.5 mph N/A   Overcast
12:55 AM 47.3 °F - 41.2 °F 79% 29.74 in 10.0 mi East 29.9 mph 34.5 mph N/A   Overcast
1:10 AM 46.4 °F 36.9 °F 41.9 °F 84% 29.74 in 7.0 mi East 32.2 mph 40.3 mph N/A Rain Rain
1:35 AM 45.5 °F 36.9 °F 42.8 °F 90% 29.74 in 4.0 mi East 24.2 mph 28.8 mph 0.03 in Rain Rain
1:55 AM 46.0 °F 37.6 °F 41.7 °F 85% 29.72 in 10.0 mi East 24.2 mph 31.1 mph 0.03 in   Overcast
2:15 AM 45.9 °F 37.0 °F 41.4 °F 84% 29.71 in 10.0 mi East 26.5 mph 32.2 mph N/A Rain Light Rain
2:35 AM 45.9 °F 37.6 °F 42.3 °F 87% 29.71 in 10.0 mi ESE 23.0 mph 28.8 mph N/A Rain Light Rain
2:55 AM 45.7 °F 36.9 °F 42.8 °F 90% 29.69 in 5.0 mi East 25.3 mph 29.9 mph N/A Rain Light Rain
3:15 AM 45.5 °F 37.1 °F 42.1 °F 88% 29.69 in 3.0 mi East 23.0 mph 29.9 mph 0.01 in Rain Rain
3:35 AM 45.5 °F 37.6 °F 42.1 °F 88% 29.68 in 5.0 mi East 20.7 mph 27.6 mph 0.02 in Rain Light Rain
3:55 AM 45.9 °F 38.5 °F 41.0 °F 83% 29.68 in 10.0 mi East 18.4 mph 26.5 mph 0.02 in Rain Light Rain
4:15 AM 46.4 °F 39.2 °F 40.5 °F 80% 29.67 in 10.0 mi East 18.4 mph - N/A   Overcast
4:35 AM 45.9 °F 37.6 °F 40.1 °F 80% 29.67 in 10.0 mi East 23.0 mph 28.8 mph N/A Rain Light Rain
5:15 AM 46.0 °F 38.3 °F 39.2 °F 77% 29.65 in 10.0 mi East 20.7 mph 26.5 mph N/A   Overcast
5:35 AM 46.4 °F 38.5 °F 39.4 °F 77% 29.66 in 10.0 mi East 21.9 mph 27.6 mph N/A   Overcast
5:55 AM 46.0 °F 37.4 °F 40.1 °F 80% 29.66 in 10.0 mi East 25.3 mph 29.9 mph N/A   Overcast
6:15 AM 45.5 °F 37.3 °F 40.5 °F 83% 29.67 in 7.0 mi ESE 21.9 mph 31.1 mph N/A Rain Light Rain
6:35 AM 45.1 °F 37.3 °F 41.0 °F 85% 29.67 in 7.0 mi East 19.6 mph - N/A Rain Light Rain
6:55 AM 45.3 °F 36.9 °F 41.5 °F 87% 29.67 in 5.0 mi East 23.0 mph 27.6 mph N/A Rain Light Rain
7:15 AM 45.5 °F 36.9 °F 42.1 °F 88% 29.66 in 5.0 mi ESE 24.2 mph 29.9 mph N/A Rain Light Rain
7:35 AM 45.5 °F 37.1 °F 42.3 °F 88% 29.65 in 10.0 mi East 23.0 mph 32.2 mph N/A   Overcast
7:55 AM 45.9 °F 37.0 °F 42.6 °F 88% 29.62 in 10.0 mi East 26.5 mph 33.4 mph N/A Rain Light Rain
8:15 AM 46.6 °F - 43.2 °F 88% 29.58 in 10.0 mi East 25.3 mph 33.4 mph N/A   Scattered Clouds
8:35 AM 46.8 °F - 43.5 °F 88% 29.55 in 10.0 mi East 27.6 mph 38.0 mph N/A   Scattered Clouds
8:55 AM 47.5 °F - 44.1 °F 88% 29.58 in 7.0 mi East 24.2 mph 34.5 mph N/A   Mostly Cloudy
9:15 AM 47.8 °F - 44.6 °F 89% 29.59 in 10.0 mi East 19.6 mph 26.5 mph N/A   Overcast
9:55 AM 48.7 °F - 45.5 °F 89% 29.63 in 7.0 mi ESE 21.9 mph 27.6 mph N/A   Overcast
10:15 AM 49.1 °F - 45.9 °F 89% 29.63 in 7.0 mi ESE 20.7 mph 27.6 mph N/A   Overcast
10:35 AM 49.8 °F - 46.0 °F 87% 29.63 in 7.0 mi ESE 24.2 mph 31.1 mph N/A   Overcast
11:15 AM 51.3 °F - 47.1 °F 86% 29.61 in 7.0 mi East 25.3 mph 32.2 mph N/A   Overcast
11:55 AM 50.4 °F - 46.0 °F 85% 29.61 in 7.0 mi East 21.9 mph 29.9 mph N/A   Overcast
12:15 PM 50.4 °F - 45.5 °F 83% 29.60 in 10.0 mi East 23.0 mph 31.1 mph N/A   Overcast
12:35 PM 50.5 °F - 45.9 °F 84% 29.60 in 7.0 mi East 21.9 mph 29.9 mph N/A   Overcast
1:15 PM 51.1 °F - 46.6 °F 85% 29.57 in 7.0 mi East 23.0 mph 28.8 mph N/A   Overcast
1:35 PM 51.8 °F - 47.5 °F 85% 29.59 in 7.0 mi ESE 20.7 mph 25.3 mph N/A   Overcast
1:55 PM 52.9 °F - 48.6 °F 85% 29.60 in 7.0 mi SE 25.3 mph - N/A   Overcast
2:15 PM 53.2 °F - 48.9 °F 85% 29.59 in 7.0 mi ESE 20.7 mph 29.9 mph N/A   Overcast
2:35 PM 54.0 °F - 49.6 °F 85% 29.57 in 7.0 mi East 23.0 mph 27.6 mph N/A   Overcast
2:55 PM 54.5 °F - 49.8 °F 84% 29.55 in 7.0 mi East 19.6 mph 27.6 mph N/A   Overcast
3:15 PM 54.9 °F - 49.8 °F 83% 29.54 in 7.0 mi East 19.6 mph 27.6 mph N/A   Overcast
3:35 PM 54.0 °F - 49.5 °F 85% 29.53 in 7.0 mi East 19.6 mph 27.6 mph N/A   Overcast
3:55 PM 54.5 °F - 49.5 °F 83% 29.51 in 7.0 mi East 21.9 mph 28.8 mph N/A   Overcast
4:15 PM 54.5 °F - 49.8 °F 84% 29.51 in 7.0 mi East 21.9 mph 31.1 mph N/A   Overcast
4:35 PM 54.9 °F - 49.5 °F 82% 29.51 in 7.0 mi East 21.9 mph 27.6 mph N/A   Overcast
4:55 PM 55.0 °F - 49.5 °F 81% 29.51 in 10.0 mi East 12.7 mph 24.2 mph N/A Thunderstorm Overcast
5:15 PM 54.7 °F - 49.3 °F 82% 29.50 in 7.0 mi East 15.0 mph 25.3 mph N/A   Overcast
5:35 PM 54.7 °F - 49.1 °F 81% 29.50 in 7.0 mi East 19.6 mph 25.3 mph N/A   Overcast
5:55 PM 54.9 °F - 49.1 °F 81% 29.50 in 7.0 mi East 16.1 mph 25.3 mph N/A   Overcast
6:15 PM 54.5 °F - 48.9 °F 81% 29.51 in 7.0 mi East 19.6 mph - N/A Thunderstorm Overcast
6:35 PM 54.1 °F - 49.1 °F 83% 29.51 in 7.0 mi East 20.7 mph 29.9 mph N/A   Overcast
6:55 PM 53.6 °F - 49.3 °F 85% 29.54 in 7.0 mi ESE 15.0 mph 23.0 mph N/A   Overcast
7:15 PM 53.1 °F - 49.8 °F 89% 29.54 in 7.0 mi East 12.7 mph - N/A Rain Light Rain
7:35 PM 54.3 °F - 50.5 °F 87% 29.53 in 7.0 mi ESE 18.4 mph 23.0 mph 0.01 in Rain Light Rain
7:55 PM 54.0 °F - 50.5 °F 88% 29.52 in 7.0 mi ESE 13.8 mph - 0.01 in Rain Light Rain
8:15 PM 53.6 °F - 50.4 °F 89% 29.51 in 7.0 mi ESE 21.9 mph 25.3 mph N/A Rain Rain
8:35 PM 53.2 °F - 50.5 °F 91% 29.49 in 7.0 mi East 17.3 mph 26.5 mph N/A   Mostly Cloudy
8:55 PM 53.1 °F - 50.5 °F 91% 29.49 in 5.0 mi ESE 18.4 mph 21.9 mph N/A   Clear
9:15 PM 53.1 °F - 50.5 °F 91% 29.51 in 5.0 mi ESE 24.2 mph 29.9 mph N/A   Clear
9:35 PM 52.7 °F - 50.4 °F 92% 29.52 in 5.0 mi ESE 18.4 mph 28.8 mph N/A   Clear
9:55 PM 52.7 °F - 50.4 °F 92% 29.52 in 5.0 mi ESE 11.5 mph - N/A   Clear
10:15 PM 52.3 °F - 50.2 °F 92% 29.52 in 5.0 mi ESE 10.4 mph - N/A   Scattered Clouds
10:35 PM 52.7 °F - 50.5 °F 92% 29.53 in 4.0 mi East 6.9 mph - N/A   Mostly Cloudy
10:55 PM 52.7 °F - 50.5 °F 92% 29.54 in 4.0 mi ESE 5.8 mph - N/A   Overcast
11:15 PM 52.3 °F - 50.5 °F 94% 29.54 in 3.0 mi ESE 9.2 mph - N/A Rain Rain
11:35 PM 52.2 °F - 50.4 °F 94% 29.53 in 3.0 mi East 8.1 mph - N/A   Overcast
11:55 PM 52.2 °F - 50.5 °F 94% 29.52 in 3.0 mi East 8.1 mph - N/A   Overcast